Theta_e
305 302 301 301 301 301 301 301 301 302 302 302 302 304 305 306 307 309 316 315 315 318 328 339 349 348 352 345 346 345 356 358 353 351 351 351 354 351 350 353 349 351 351 349 349
309 304 302 301 301 301 301 301 301 301 301 302 302 304 305 306 312 317 317 317 316 318 335 348 349 347 352 347 345 349 351 352 347 346 345 349 352 352 354 354 354 353 351 350 350
310 306 303 302 302 301 301 301 301 301 301 302 303 303 304 309 320 315 322 323 322 317 327 337 342 342 342 344 347 349 350 346 346 342 344 351 353 351 355 355 354 355 352 350 350
307 304 303 303 302 302 301 301 301 301 301 302 302 304 306 315 312 320 321 323 319 318 321 329 327 325 332 345 347 352 348 344 345 343 342 348 351 353 352 351 350 351 350 350 350
306 305 304 304 303 302 302 302 302 302 302 302 304 306 314 321 317 317 320 321 321 320 328 328 323 322 328 333 346 347 346 345 344 343 341 340 348 353 351 350 349 351 351 350 349
305 305 304 304 304 303 303 303 303 303 303 303 305 314 316 309 314 316 316 319 322 327 330 326 324 323 326 333 345 344 343 343 344 342 341 341 342 347 350 349 351 352 351 350 348
304 303 303 304 305 304 304 305 305 305 304 306 309 317 320 312 316 320 320 319 321 322 323 325 326 326 328 330 338 342 339 344 343 341 342 339 348 353 351 349 352 352 351 348 346
304 304 303 302 304 304 305 307 307 306 310 312 312 321 319 313 315 315 316 318 324 325 326 326 325 324 326 325 324 324 335 344 342 342 339 336 350 353 349 348 349 351 350 347 346
304 304 303 301 301 302 304 307 308 313 312 313 320 321 321 321 322 319 317 319 322 327 327 326 324 323 324 323 320 321 323 326 327 335 342 342 344 351 348 349 349 347 347 347 346
304 303 303 301 301 302 304 309 315 318 323 323 324 324 320 324 327 324 321 320 320 324 325 323 322 321 318 318 321 322 324 325 331 343 343 342 344 348 350 350 350 349 348 347 346
304 304 303 302 301 302 308 313 309 312 322 324 325 325 321 324 327 324 322 320 319 320 321 318 321 324 321 319 320 322 323 324 328 337 343 343 343 346 348 349 350 349 349 348 347
304 304 303 302 301 306 308 310 313 311 308 312 315 318 321 323 325 326 323 320 319 318 317 319 319 321 322 321 321 321 322 323 341 344 345 345 344 341 341 348 348 348 347 347 346
304 303 303 303 303 308 306 308 310 309 308 310 312 314 314 317 319 320 321 319 320 318 318 318 320 322 323 323 324 321 322 323 328 343 343 346 347 344 341 338 339 346 345 344 345
304 304 304 303 304 303 309 309 309 309 308 312 311 312 313 314 314 318 323 321 318 319 318 318 320 323 323 323 323 322 323 324 328 337 343 341 347 347 343 341 340 341 344 344 343
304 304 304 303 304 306 305 308 309 308 320 321 317 315 312 314 318 319 321 321 320 322 320 322 323 323 323 323 323 323 323 324 327 340 342 343 345 343 347 347 340 341 341 343 342
304 304 304 304 304 306 307 308 309 310 317 318 320 315 314 314 318 322 323 323 323 323 322 322 323 323 323 323 323 323 321 323 324 332 341 341 346 348 348 347 344 342 342 341 341
304 304 304 304 305 306 308 308 307 312 316 322 317 316 315 313 316 318 325 325 325 324 325 324 323 322 323 321 321 321 318 320 323 324 329 337 347 345 343 346 345 344 344 341 341
303 304 304 305 304 306 309 307 311 315 316 316 316 318 318 316 315 316 318 327 325 322 323 324 325 322 322 323 322 318 319 319 321 326 327 329 346 344 340 341 345 345 345 343 340
303 304 305 305 306 306 306 311 310 313 314 315 315 318 317 319 317 316 315 319 325 320 323 323 324 324 323 323 323 320 318 317 318 324 327 328 335 335 338 339 343 346 346 343 340
304 304 305 305 307 308 307 312 311 313 314 315 316 316 317 317 318 317 317 317 318 320 319 321 323 323 325 322 322 322 317 319 314 319 322 324 330 333 337 340 341 346 346 343 341
305 302 304 305 304 306 311 310 312 312 313 314 314 314 315 316 316 317 318 318 319 319 320 321 319 322 324 324 324 321 319 317 317 318 322 323 325 326 329 338 341 345 346 343 341
302 303 304 304 302 304 311 310 311 311 312 313 313 314 314 315 315 315 317 318 319 318 318 317 319 321 322 322 323 324 322 318 321 319 320 323 325 328 327 335 340 340 342 342 340
301 300 304 305 305 307 310 311 312 313 313 313 313 314 314 316 317 316 317 318 317 320 318 320 319 320 319 319 321 322 322 321 313 315 321 324 324 323 323 339 339 339 339 340 341
300 303 299 301 307 306 309 312 312 310 311 312 312 313 315 317 317 319 319 318 315 316 324 319 320 320 324 322 322 322 324 321 320 320 320 321 321 322 324 334 339 340 340 339 338
301 303 301 305 305 306 307 308 310 311 310 311 311 312 316 317 317 319 317 315 314 318 315 315 318 318 318 322 323 325 325 325 321 321 321 319 318 319 319 325 334 338 339 340 339
304 304 301 302 302 305 304 306 310 310 310 310 311 311 314 315 315 315 313 313 312 314 313 314 318 319 326 324 323 324 325 325 324 323 321 319 320 318 319 320 326 335 339 338 333
303 304 305 305 303 303 303 305 306 307 310 309 310 311 311 310 310 310 310 310 310 311 312 316 316 319 324 324 323 324 325 325 325 324 322 321 320 320 322 328 329 333 334 332 336
Wind_Speed
24 24 25 25 26 26 25 25 25 25 26 28 26 23 23 24 25 19 9 27 18 24 9 24 12 20 22 3 4 7 4 4 7 3 11 21 15 14 9 18 8 4 12 25 33
26 27 28 27 27 27 26 26 27 27 28 29 27 24 22 22 21 16 37 33 27 19 21 21 12 18 4 8 5 5 3 6 9 5 8 21 26 17 12 18 7 17 19 29 31
28 29 30 30 30 30 30 29 29 28 30 29 27 24 19 14 5 9 10 10 19 26 22 25 20 14 7 6 7 4 6 5 11 3 5 19 23 16 25 15 23 25 23 23 26
30 33 34 33 32 32 33 33 33 32 33 32 26 21 13 3 6 2 5 6 16 25 19 13 10 8 8 11 7 5 8 9 9 15 3 13 18 18 23 14 25 27 28 24 20
34 35 36 35 34 34 34 35 36 34 36 30 22 15 3 3 14 18 2 4 13 21 18 10 9 7 8 8 9 6 6 15 16 13 8 8 19 20 15 24 21 25 25 24 22
37 37 38 38 35 35 37 38 37 37 36 30 18 7 2 9 15 18 14 16 11 20 14 12 7 9 5 7 14 8 9 15 20 15 7 11 14 9 19 24 24 27 26 22 24
36 39 41 40 37 38 39 39 39 38 37 23 10 4 5 21 6 6 6 22 22 21 7 21 23 4 1 1 11 13 7 15 14 19 8 10 6 16 25 28 27 27 24 21 22
37 40 42 41 38 40 40 40 40 38 23 13 7 7 9 12 15 27 16 26 22 25 21 14 24 6 4 5 4 3 2 4 14 15 4 6 11 21 27 27 27 27 22 20 21
40 42 44 44 41 43 45 40 36 9 7 7 9 6 11 10 7 27 23 13 25 24 24 18 7 8 4 2 5 2 4 7 5 12 6 4 5 22 25 24 23 22 21 16 16
41 43 45 45 45 45 45 32 10 7 7 4 2 2 8 6 5 8 21 23 5 9 4 5 3 5 1 4 7 6 3 2 4 17 29 11 5 22 22 23 24 22 21 18 15
40 42 44 48 46 48 33 9 5 3 2 9 7 7 13 6 11 9 21 13 6 5 10 6 5 13 11 7 7 5 7 7 4 7 18 17 14 23 23 19 21 21 21 20 21
41 42 45 49 50 22 11 4 1 13 13 15 24 26 38 7 7 9 22 9 7 8 5 5 12 9 9 7 10 12 14 13 5 3 2 11 16 19 17 24 25 22 20 21 20
40 42 45 50 36 6 25 7 25 30 5 8 15 16 13 17 15 19 9 9 8 7 10 13 7 11 9 10 11 13 17 8 6 3 4 7 2 6 6 3 10 18 22 21 23
41 42 44 53 8 34 13 25 30 23 4 8 6 9 9 8 10 21 12 15 6 18 7 10 14 13 17 14 14 14 15 9 7 5 9 8 5 8 15 12 14 18 20 21 23
39 41 42 42 18 10 19 29 35 2 6 4 5 6 9 12 7 12 24 6 17 9 9 9 18 19 17 18 17 14 10 9 9 6 3 3 3 6 10 19 13 18 21 24 24
37 39 42 27 16 20 21 36 8 4 8 7 5 6 7 5 3 2 11 6 6 13 9 19 9 15 19 14 17 11 8 6 4 4 10 13 13 6 9 10 20 18 22 23 22
37 39 41 29 7 16 23 7 3 5 5 2 6 8 6 7 7 3 19 17 15 12 17 10 17 9 8 10 10 11 6 5 5 6 10 11 11 12 19 13 21 25 24 21 24
37 40 39 35 31 18 9 3 6 5 9 9 12 9 5 3 7 6 5 20 17 4 7 11 9 16 11 18 14 10 16 9 8 4 5 6 9 10 12 15 25 27 27 22 26
35 34 28 30 14 12 3 4 7 6 6 14 12 5 6 5 12 6 15 11 19 17 10 8 10 4 15 14 19 10 11 11 7 3 2 4 7 8 12 8 18 26 22 24 27
29 14 19 19 6 13 3 4 5 3 13 10 3 4 9 14 11 17 5 10 13 14 10 7 3 11 22 9 17 19 7 5 1 12 15 5 7 6 8 14 17 24 24 26 26
10 4 16 16 21 3 7 7 5 19 11 8 15 15 15 12 7 9 11 15 5 10 20 20 9 10 4 13 16 8 11 3 6 9 13 8 15 8 10 12 14 21 29 26 22
6 4 9 36 4 2 7 7 12 18 19 13 11 16 10 10 14 10 12 10 18 19 13 9 12 16 26 9 12 21 16 13 11 8 5 16 19 3 10 10 16 19 22 22 17
3 4 14 7 4 6 9 10 9 10 9 6 5 5 5 4 7 7 12 9 19 14 7 8 10 11 8 12 12 8 12 18 6 4 20 7 2 9 6 5 8 9 6 8 10
2 4 4 3 3 10 11 6 11 14 7 9 6 4 8 3 4 9 11 12 22 17 20 10 6 12 21 11 6 7 17 13 17 12 11 21 5 6 1 7 9 15 13 12 10
1 4 2 4 5 9 8 5 11 8 8 4 5 6 6 4 5 4 7 16 12 8 14 6 6 5 10 16 19 11 11 22 22 21 20 8 10 10 9 9 8 12 11 19 20
2 3 4 3 5 5 5 3 7 8 5 6 7 9 5 3 7 12 14 9 5 8 10 4 5 7 7 12 23 22 19 21 17 21 19 8 8 10 12 9 8 10 16 18 12
5 10 3 5 3 3 3 8 14 11 8 10 12 8 10 13 9 14 15 17 11 6 6 4 3 7 6 6 18 17 33 16 12 9 10 11 8 9 8 8 10 10 10 11 15
Wind_Direction
357 355 352 350 349 347 344 341 338 334 334 333 329 325 324 318 310 300 241 251 241 227 191 158 157 144 142 109 164 183 158 291 324 140 134 145 133 152 118 135 163 224 146 163 163
353 351 350 347 345 343 340 337 335 332 331 330 328 325 326 324 317 269 277 271 251 209 169 153 175 168 191 143 194 193 139 228 208 243 174 151 149 140 137 155 136 112 139 162 160
350 348 347 344 342 340 338 336 333 330 330 329 326 324 330 332 309 249 322 283 223 206 186 186 182 169 201 137 200 213 180 215 293 171 98 142 146 144 147 175 155 153 156 163 163
350 349 347 344 340 337 335 333 332 329 329 327 322 322 330 336 279 272 333 39 167 193 198 195 212 188 168 208 180 185 228 230 263 267 169 156 142 162 164 178 161 157 161 162 167
348 348 346 344 340 336 333 330 328 325 327 327 322 326 358 249 245 242 265 37 166 175 181 190 197 156 196 193 172 231 161 203 233 201 150 180 184 172 190 150 156 153 162 168 169
352 350 346 343 340 335 331 327 324 321 322 319 311 320 182 243 264 278 247 236 194 180 184 178 209 200 272 201 192 212 218 221 222 244 175 185 193 127 158 153 154 160 170 176 173
352 349 345 342 339 333 329 324 320 318 316 303 279 212 240 236 247 123 243 235 216 193 170 207 216 187 157 324 227 238 271 269 245 211 205 155 109 148 154 157 159 169 173 178 182
349 348 345 340 337 333 328 321 318 317 305 277 197 169 246 264 273 263 251 248 237 219 212 216 209 208 206 274 342 181 152 236 271 153 159 106 176 159 160 162 163 172 179 179 186
346 344 344 340 334 333 330 319 320 335 349 137 135 174 267 295 228 242 230 209 219 226 227 221 166 195 256 215 358 8 206 207 283 196 125 185 196 169 165 166 169 173 179 176 171
344 343 342 339 334 333 328 323 13 106 85 122 284 318 264 252 237 222 212 211 171 211 241 191 178 189 118 119 214 224 237 235 169 152 179 187 175 169 173 171 173 178 180 184 185
342 342 342 338 334 333 333 355 10 6 188 258 222 259 294 289 316 214 185 177 177 168 189 194 177 223 213 193 226 233 259 252 306 214 176 185 171 167 177 179 183 184 182 186 187
343 344 342 338 334 336 11 351 333 318 293 251 245 246 247 265 320 299 179 163 160 201 153 240 223 202 190 201 218 238 250 260 271 181 57 189 180 180 173 185 186 184 188 192 192
343 343 342 339 339 30 331 274 337 347 269 271 232 237 232 199 228 254 189 172 176 191 205 215 235 190 196 215 224 230 230 225 207 234 123 118 16 238 249 209 183 198 192 193 192
341 340 341 340 2 333 299 332 333 343 314 274 231 247 171 169 221 216 196 179 184 201 196 227 232 211 211 222 210 239 231 221 230 237 226 160 232 201 227 244 187 194 196 200 199
336 337 337 339 303 308 310 328 334 344 310 219 229 141 157 171 155 205 197 191 182 175 165 218 195 219 215 216 217 241 234 206 215 225 137 284 161 248 190 223 219 202 201 203 201
335 334 334 333 296 296 328 324 329 47 246 289 187 147 139 255 260 149 157 205 162 196 214 219 238 200 215 223 221 228 256 235 208 160 234 219 201 245 203 200 217 210 206 202 202
333 332 324 308 249 315 325 344 74 207 311 295 359 345 296 170 233 146 185 193 198 187 211 228 231 233 182 203 224 198 154 246 245 221 232 203 218 220 210 202 203 205 208 202 200
332 328 319 291 282 286 330 64 215 243 253 47 339 309 218 56 235 218 164 206 209 152 191 201 242 215 215 207 209 203 205 204 211 212 216 202 219 239 228 208 198 210 211 201 201
332 331 302 301 305 218 96 188 206 218 23 351 349 352 349 5 11 330 213 207 210 190 185 186 237 264 210 220 195 219 206 198 196 209 308 214 259 291 241 209 215 211 204 202 201
330 310 279 319 319 150 110 244 237 337 2 349 311 294 360 354 333 3 313 244 218 206 194 220 278 218 239 212 240 209 180 204 226 217 241 255 230 221 212 219 196 207 207 202 198
324 331 288 347 338 143 220 212 285 293 333 355 317 293 296 308 306 310 269 311 279 228 209 214 205 238 202 222 215 200 210 232 183 196 226 242 248 197 235 212 208 203 200 197 185
330 307 293 323 19 269 225 187 245 267 286 283 283 287 300 337 294 266 247 220 308 310 312 261 216 232 235 208 201 220 215 196 220 243 245 227 237 242 198 223 195 199 203 201 177
298 259 315 294 4 4 341 345 11 8 340 346 303 37 339 342 307 278 248 252 17 11 318 321 222 229 272 255 240 205 223 217 147 135 226 207 215 203 228 181 199 207 208 180 189
324 316 316 20 68 6 4 341 338 338 326 2 316 325 355 27 305 305 328 334 344 337 342 330 243 242 232 215 177 196 224 217 215 215 215 235 199 291 182 188 225 209 194 183 207
259 263 287 316 341 335 315 283 315 335 357 21 329 353 343 309 305 284 336 327 328 330 350 20 281 265 275 240 206 189 194 217 215 222 212 186 193 228 236 199 219 231 217 204 205
264 311 339 273 287 322 316 21 334 324 305 306 312 332 308 246 272 297 309 312 254 318 340 329 285 333 258 244 225 220 223 231 221 220 231 160 212 186 231 198 198 212 203 213 205
226 262 247 279 286 308 259 343 308 311 285 316 292 288 282 278 273 281 275 264 239 267 286 271 321 345 276 218 214 233 221 205 215 206 192 210 192 184 201 200 203 204 206 222 209